Weather History for YBHM - May, 2014

Change the Weather History Date:

Saturday, May 3, 2014

  Actual Average Record
Temperature  
Mean Temperature 74 °F -  
Max Temperature 78 °F - - ()
Min Temperature 69 °F - - ()
Cooling Degree Days 8    
Growing Degree Days 24 (Base 50)    
Moisture  
Dew Point 54 °F    
Average Humidity 49    
Maximum Humidity 83    
Minimum Humidity 28    
Precipitation  
Precipitation 0.00 in - - ()
Sea Level Pressure  
Sea Level Pressure 29.81 in    
Wind  
Wind Speed 12 mph ()    
Max Wind Speed 21 mph    
Max Gust Speed -    
Visibility 6.2 miles    
Events      
T = Trace of Precipitation, MM = Missing Value Source: Averaged Metar Reports

Daily Weather History Graph

Daily Weather History Graph

Search for Another Location

Airport or City:

Trip Planner

Search our weather history database for the weather conditions in past years. The results will help you decide how hot, cold, wet, or windy it might be!

Date:

Astronomy

May. 03, 2014 Rise Set
Actual Time 6:21 AM AEST 5:40 PM AEST
Civil Twilight 5:58 AM AEST 6:03 PM AEST
Nautical Twilight 5:31 AM AEST 6:30 PM AEST
Astronomical Twilight 5:05 AM AEST 6:56 PM AEST
Moon 9:36 AM AEST (5/3) 9:00 PM AEST (5/3)
Length of Visible Light 12h 05m
Length of Day
11h 19m
Waxing Crescent, 15% of the Moon is Illuminated
May 3
Waxing Crescent
May 7
First Quarter
May 15
Full
May 21
Last Quarter
May 29
New

Hourly Weather History & Observations

Time (AEST) Temp. Dew Point Humidity Pressure Visibility Wind Dir Wind Speed Gust Speed Precip Events Conditions
12:00 AM 78 °F 72 °F 77% 29.77 in - WNW 20.7 mph - -  
12:00 AM 77.0 °F 71.6 °F 83% 29.77 in 6.2 mi WNW 20.7 mph - N/A   Mostly Cloudy
12:30 AM 77.0 °F 71.6 °F 83% 29.77 in 6.2 mi West 16.1 mph - N/A   Mostly Cloudy
1:00 AM 77.0 °F 71.6 °F 83% 29.77 in 6.2 mi West 12.7 mph - N/A   Scattered Clouds
1:30 AM 77.0 °F 71.6 °F 83% 29.77 in 6.2 mi West 13.8 mph - N/A   Mostly Cloudy
2:00 AM 77.0 °F 69.8 °F 78% 29.77 in 6.2 mi West 15.0 mph - N/A   Scattered Clouds
2:30 AM 77.0 °F 68.0 °F 74% 29.74 in 6.2 mi West 15.0 mph - N/A   Overcast
3:00 AM 76 °F 62 °F 52% 29.75 in - WSW 17.3 mph - -  
3:00 AM 77.0 °F 62.6 °F 61% 29.74 in 6.2 mi WSW 17.3 mph - N/A   Scattered Clouds
3:30 AM 75.2 °F 59.0 °F 57% 29.74 in 6.2 mi WSW 17.3 mph - N/A   Unknown
4:00 AM 75.2 °F 50.0 °F 41% 29.74 in 6.2 mi SW 20.7 mph - N/A   Unknown
4:30 AM 75.2 °F 48.2 °F 38% 29.74 in 6.2 mi SW 17.3 mph - N/A   Mostly Cloudy
5:00 AM 75.2 °F 46.4 °F 36% 29.77 in 6.2 mi SW 16.1 mph - N/A   Mostly Cloudy
5:30 AM 75.2 °F 46.4 °F 36% 29.77 in 6.2 mi WSW 17.3 mph - N/A   Scattered Clouds
6:00 AM 73 °F 48 °F 29% 29.80 in - WSW 12.7 mph - -  
6:00 AM 73.4 °F 48.2 °F 41% 29.80 in 6.2 mi WSW 12.7 mph - N/A   Unknown
6:30 AM 73.4 °F 48.2 °F 41% 29.80 in 6.2 mi WSW 11.5 mph - N/A   Unknown
7:00 AM 71.6 °F 46.4 °F 41% 29.83 in 6.2 mi WSW 13.8 mph - N/A   Unknown
7:30 AM 71.6 °F 48.2 °F 43% 29.83 in 6.2 mi WSW 9.2 mph - N/A   Unknown
8:00 AM 71.6 °F 46.4 °F 41% 29.83 in 6.2 mi SW 12.7 mph - N/A   Unknown
8:30 AM 73.4 °F 44.6 °F 36% 29.83 in 6.2 mi SSW 8.1 mph - N/A   Unknown
9:00 AM 73 °F 48 °F 30% 29.86 in - SW 10.4 mph - -  
9:00 AM 73.4 °F 48.2 °F 41% 29.86 in 6.2 mi SW 10.4 mph - N/A   Unknown
9:30 AM 73.4 °F 51.8 °F 47% 29.86 in 6.2 mi South 12.7 mph - N/A   Unknown
10:00 AM 75.2 °F 51.8 °F 44% 29.86 in 6.2 mi South 11.5 mph - N/A   Unknown
10:30 AM 75.2 °F 51.8 °F 44% 29.83 in 6.2 mi SSE 11.5 mph - N/A   Unknown
11:00 AM 75.2 °F 46.4 °F 36% 29.83 in 6.2 mi SW 10.4 mph - N/A   Unknown
11:30 AM 75.2 °F 50.0 °F 41% 29.83 in 6.2 mi WSW 8.1 mph - N/A   Unknown
12:00 PM 76 °F 49 °F 28% 29.82 in - SW 2.3 mph - -  
12:00 PM 75.2 °F 50.0 °F 41% 29.83 in 6.2 mi SW 2.3 mph - N/A   Unknown
12:30 PM 75.2 °F 51.8 °F 44% 29.80 in 6.2 mi SE 8.1 mph - N/A   Unknown
1:00 PM 75.2 °F 50.0 °F 41% 29.80 in 6.2 mi East 5.8 mph - N/A   Unknown
1:30 PM 75.2 °F 50.0 °F 41% 29.77 in 6.2 mi East 8.1 mph - N/A   Unknown
2:00 PM 75.2 °F 50.0 °F 41% 29.77 in 6.2 mi East 5.8 mph - N/A   Unknown
2:30 PM 75.2 °F 51.8 °F 44% 29.77 in 6.2 mi East 3.5 mph - N/A   Unknown
3:00 PM 75 °F 52 °F 34% 29.77 in - East 6.9 mph - -  
3:00 PM 75.2 °F 51.8 °F 44% 29.77 in 6.2 mi East 6.9 mph - N/A   Unknown
3:30 PM 75.2 °F 51.8 °F 44% 29.77 in 6.2 mi ESE 5.8 mph - N/A   Unknown
4:00 PM 75.2 °F 51.8 °F 44% 29.77 in 6.2 mi ENE 8.1 mph - N/A   Unknown
4:30 PM 75.2 °F 51.8 °F 44% 29.77 in 6.2 mi NE 6.9 mph - N/A   Unknown
5:00 PM 73.4 °F 53.6 °F 50% 29.80 in 6.2 mi NE 9.2 mph - N/A   Unknown
5:30 PM 73.4 °F 53.6 °F 50% 29.80 in 6.2 mi NNE 10.4 mph - N/A   Unknown
6:00 PM 72 °F 55 °F 44% 29.81 in - NNE 9.2 mph - -  
6:00 PM 71.6 °F 55.4 °F 57% 29.80 in 6.2 mi NNE 9.2 mph - N/A   Unknown
6:30 PM 71.6 °F 53.6 °F 53% 29.80 in 6.2 mi Calm Calm - N/A   Unknown
7:00 PM 71.6 °F 53.6 °F 53% 29.83 in 6.2 mi Calm Calm - N/A   Unknown
7:30 PM 71.6 °F 53.6 °F 53% 29.83 in 6.2 mi NW 4.6 mph - N/A   Unknown
8:00 PM 71.6 °F 55.4 °F 57% 29.86 in 6.2 mi Calm Calm - N/A   Unknown
8:30 PM 71.6 °F 57.2 °F 60% 29.86 in 6.2 mi NW 2.3 mph - N/A   Unknown
9:00 PM 70 °F 58 °F 57% 29.87 in - NW 5.8 mph - -  
9:00 PM 69.8 °F 57.2 °F 64% 29.86 in 6.2 mi NW 5.8 mph - N/A   Unknown
9:30 PM 71.6 °F 50.0 °F 46% 29.86 in 6.2 mi West 10.4 mph - N/A   Unknown
10:00 PM 73.4 °F 50.0 °F 44% 29.86 in 6.2 mi WSW 11.5 mph - N/A   Unknown
10:30 PM 71.6 °F 50.0 °F 46% 29.86 in 6.2 mi WSW 12.7 mph - N/A   Unknown
11:00 PM 71.6 °F 48.2 °F 43% 29.89 in 6.2 mi WSW 20.7 mph - N/A   Unknown
11:30 PM 69.8 °F 44.6 °F 40% 29.89 in 6.2 mi WSW 18.4 mph - N/A   Unknown